Location: Bernadets
(43.3537°N, 0.3167°E)
Time: 00:42:00
(UTC+00:00)

Cosmos 2346 Rocket - Pass Details

Date: 24 October 2021
Orbit: 937 x 979 km, 82.9° (Epoch: 27 November)

Event Time Altitude Azimuth Distance (km) Brightness Sun altitude
Rises 19:29:44 0° 352° (N) 3,682 7.7 -27.6°
Reaches altitude 10° 19:32:16 10° 354° (N) 2,734 7.0 -28.0°
Enters shadow 19:38:13 78° 38° (NE) 1,005 4.4 -29.1°
